Theta_e
352 353 355 355 355 356 356 357 356 355 354 354 354 354 353 353 353 352 353 354 354 355 356 354 355 357 356 356 356 356 357 358 359 359 359 359 358 359 359 358 358 359 359 359 358 358 358 359 359 357 355 356 356 355 354 354 354 355 356 356 358 359 357 360 364 364 359 356 356 354 352 351 350 350 350 349 349 349 348 347 346 347 346 345 345
350 350 352 352 353 355 356 356 356 355 354 354 354 353 352 352 353 352 352 353 353 354 354 353 354 355 355 356 356 355 356 359 359 358 359 361 360 359 358 358 358 358 359 361 361 359 359 360 360 358 356 355 357 356 354 353 353 353 354 356 358 357 356 357 361 362 361 358 357 356 354 354 352 352 352 349 349 349 347 347 347 346 346 346 347
349 349 350 351 352 354 355 355 355 354 353 352 352 351 352 352 353 353 353 352 352 353 354 354 354 355 355 355 355 355 357 361 360 358 359 361 361 359 358 357 358 357 357 359 359 358 358 358 359 358 357 356 358 357 355 354 354 353 354 355 357 357 356 357 358 359 359 359 357 357 357 356 355 354 352 350 348 348 348 349 348 347 348 348 348
349 349 349 350 352 353 353 354 355 354 352 351 350 349 349 350 351 352 352 351 352 353 353 354 354 355 356 356 356 357 358 361 361 358 358 359 360 361 359 358 358 358 358 358 358 358 358 358 359 357 357 357 358 358 356 354 354 354 355 356 356 357 357 357 357 357 358 358 358 358 357 356 355 353 352 349 347 347 348 347 347 348 349 348 347
351 350 350 350 350 351 351 352 352 352 351 351 350 348 347 347 348 349 350 350 350 351 351 352 352 356 358 357 358 359 359 360 360 358 358 358 360 360 359 358 358 358 359 358 358 359 358 358 358 357 357 357 357 357 356 355 355 355 356 356 355 355 355 355 355 354 355 356 357 356 355 355 353 351 350 348 347 346 346 346 347 347 347 346 347
354 352 351 351 350 350 350 351 351 350 350 350 349 348 347 345 345 346 347 348 348 348 348 350 352 356 359 359 358 359 359 358 358 358 359 358 358 359 358 357 358 358 358 358 358 358 358 357 356 355 356 357 356 355 355 355 355 354 354 355 356 355 355 354 354 354 354 355 355 355 354 352 352 350 349 348 348 347 347 347 346 345 345 347 348
361 360 357 355 354 353 351 351 350 350 349 349 349 348 348 347 345 344 345 346 348 347 346 348 351 354 359 360 358 358 358 359 359 358 359 359 358 359 358 357 358 358 357 357 356 355 356 356 355 355 355 356 355 354 354 354 354 354 354 355 356 356 357 356 355 355 355 355 355 355 354 352 352 350 349 349 348 348 347 346 344 344 347 348 348
363 366 363 361 360 358 355 353 353 352 351 351 351 351 352 352 349 345 344 344 345 346 346 346 348 352 357 360 359 358 358 359 360 359 359 359 358 357 358 358 358 357 357 356 355 354 354 354 354 353 354 355 354 354 354 354 356 356 356 356 356 357 357 358 358 357 357 357 356 355 354 353 352 350 349 349 348 346 346 347 349 351 352 352 351
362 363 362 362 361 360 358 357 355 354 353 353 353 354 354 355 353 350 348 346 344 345 345 344 345 348 352 357 358 357 356 357 360 359 359 360 359 357 357 357 356 355 355 355 355 355 355 354 353 352 352 353 353 353 354 356 357 356 354 353 354 357 357 358 358 358 357 358 357 355 353 352 351 350 350 349 348 349 351 354 356 357 357 357 356
361 361 362 362 361 361 360 358 357 358 358 360 361 360 360 360 359 357 356 352 348 346 347 347 346 346 347 351 354 354 353 353 354 355 355 358 358 357 356 355 354 354 355 356 356 356 356 355 353 352 353 352 351 353 355 355 354 353 350 349 349 352 354 356 357 357 357 358 356 354 353 353 353 352 352 353 354 355 357 358 360 360 360 360 359
360 359 360 361 361 361 361 360 360 360 361 362 363 364 364 363 362 360 358 356 354 352 352 352 351 348 346 346 348 350 350 350 351 352 354 355 356 355 356 356 354 354 355 357 357 358 357 354 352 353 355 355 353 354 354 353 352 351 349 348 347 348 350 352 353 354 355 357 357 356 356 356 356 356 357 358 359 358 358 359 360 361 361 362 361
356 356 356 357 358 359 359 359 360 359 360 360 360 360 359 357 357 357 357 358 358 357 356 356 355 353 350 348 350 350 349 350 352 352 352 353 354 355 356 356 354 353 353 353 354 355 355 353 351 350 352 353 354 356 356 354 355 354 353 353 354 353 352 352 351 351 352 355 356 357 357 357 358 359 360 359 359 358 357 358 358 359 359 359 360
354 354 353 353 355 356 356 357 357 357 356 356 357 357 354 351 351 352 353 354 355 356 356 358 358 356 353 349 349 351 352 351 353 353 352 352 353 354 355 354 353 353 352 352 352 351 351 352 351 349 350 351 353 357 358 356 355 357 357 359 360 359 359 359 357 354 353 353 353 354 356 357 359 360 359 359 358 357 357 357 357 357 358 357 357
351 352 352 353 353 353 353 354 354 354 353 352 354 354 353 352 351 352 351 350 352 354 356 358 358 357 355 351 348 350 353 353 353 353 353 353 353 354 353 352 353 354 355 354 352 351 350 351 350 350 350 352 353 357 360 360 358 358 359 360 360 360 360 360 358 356 354 354 354 355 356 357 358 358 358 357 356 356 355 355 356 357 358 357 357
345 347 348 350 351 351 351 352 352 351 351 352 354 354 353 353 352 353 354 352 352 354 355 357 357 355 353 351 350 350 351 353 354 354 354 354 353 353 352 353 354 354 355 354 352 352 353 351 350 351 352 354 355 358 360 361 359 359 359 358 357 358 358 357 356 354 353 354 355 356 356 357 356 355 354 353 353 353 353 354 355 356 357 357 358
340 342 343 344 345 346 347 349 349 349 349 350 351 351 351 352 352 352 352 352 352 354 356 357 356 355 353 351 350 350 351 352 353 353 354 354 353 353 355 356 355 353 354 354 352 353 354 354 354 354 354 355 356 357 358 359 359 358 358 358 358 358 357 357 357 355 355 355 356 355 354 353 351 347 345 346 348 351 353 355 355 355 357 358 359
336 337 338 340 341 342 343 344 345 345 345 346 346 346 347 348 349 350 351 352 352 354 355 355 354 354 354 351 350 349 350 351 351 351 351 352 352 353 354 356 356 355 354 354 352 353 354 355 356 356 355 355 356 356 357 357 355 355 356 357 358 358 357 357 356 356 354 352 349 344 340 338 337 336 338 343 347 351 354 355 356 357 358 358 359
332 332 334 336 337 338 340 341 341 341 340 339 340 343 344 344 346 348 348 349 350 351 353 354 353 353 352 350 348 347 346 347 349 349 350 351 351 352 352 355 355 355 355 354 352 353 354 354 354 355 355 355 355 354 354 353 353 352 352 353 352 354 354 351 347 346 344 340 336 332 329 329 331 334 337 340 343 347 353 356 356 357 358 358 358
328 329 331 332 333 334 336 337 338 338 337 336 337 339 341 342 343 344 345 346 347 349 351 351 350 350 348 346 344 344 344 344 345 345 347 348 349 350 351 353 353 353 354 353 352 352 351 351 351 352 352 352 351 351 350 348 344 341 340 343 346 348 346 340 336 335 335 334 334 334 333 333 334 335 335 334 335 341 350 355 357 359 360 359 359
327 328 329 329 330 331 333 334 335 335 335 336 336 338 341 342 343 343 344 345 345 346 348 348 347 346 343 341 340 340 340 340 340 341 342 344 346 347 348 350 351 352 352 352 352 352 351 350 350 350 349 348 347 345 340 334 329 325 326 331 338 340 337 333 333 333 332 331 334 335 337 338 337 336 337 337 339 346 352 356 357 356 356 355 355
326 326 326 327 328 330 331 331 332 333 334 335 335 336 339 341 343 342 341 342 345 346 345 345 343 341 339 338 338 337 337 337 336 335 335 337 340 343 344 345 347 348 349 348 348 347 349 351 350 348 348 345 340 334 327 324 325 326 327 329 333 333 331 332 335 333 328 327 332 338 342 342 340 340 341 341 345 350 353 352 347 343 344 347 349
327 324 323 322 322 325 326 326 327 329 331 333 334 335 335 336 338 339 336 336 340 341 340 341 342 340 338 337 335 334 333 333 332 330 331 333 334 336 337 338 339 341 342 343 344 344 345 349 348 345 343 340 333 328 328 330 332 333 334 334 335 334 332 331 329 325 322 327 337 344 346 344 342 342 342 343 346 351 351 346 340 339 344 349 349
326 327 326 325 323 322 323 324 325 327 329 331 332 333 334 334 336 337 335 333 335 336 336 338 341 341 338 335 333 332 331 330 329 328 328 329 329 329 330 332 334 334 334 338 341 341 340 341 340 337 335 332 330 331 334 335 335 335 335 333 331 330 328 324 321 320 326 337 345 346 345 343 340 340 342 346 349 348 346 343 341 345 349 349 348
325 325 327 327 326 324 324 325 324 324 327 330 332 332 333 334 334 334 335 334 335 335 335 335 337 340 339 335 333 333 333 331 329 327 326 326 326 326 327 329 331 331 331 333 334 333 332 332 332 332 332 332 332 332 332 330 328 325 323 322 321 321 320 319 320 325 335 343 346 345 343 340 339 340 343 345 344 342 341 342 345 348 347 346 345
326 325 324 324 324 324 325 324 322 320 321 322 322 324 328 331 331 330 332 333 333 334 335 335 335 336 338 337 335 335 335 333 330 328 327 327 327 327 327 328 328 328 329 330 330 330 331 331 329 327 326 325 322 320 317 316 315 315 316 318 319 320 322 324 328 333 339 343 343 341 340 339 341 342 342 341 339 339 341 344 346 345 343 342 342
325 325 324 324 322 322 324 323 322 321 320 318 315 314 317 321 321 322 324 328 330 330 332 333 333 333 335 336 335 335 334 332 329 328 327 327 326 326 327 327 326 327 329 330 329 328 327 323 317 313 311 310 310 311 313 317 320 322 325 327 328 329 330 333 336 339 339 339 338 338 339 341 343 342 340 340 340 340 341 343 343 342 342 341 340
325 324 324 323 321 318 318 321 322 321 321 322 321 319 317 317 318 320 322 324 326 327 329 331 330 330 332 332 333 334 333 330 328 327 326 325 324 321 321 321 319 319 321 321 320 318 315 310 305 306 310 314 318 322 326 328 328 329 331 334 336 335 334 335 337 337 334 335 339 341 342 342 342 341 340 341 340 339 340 340 340 340 338 337 336
325 325 324 323 321 319 318 321 323 320 319 320 322 321 322 323 324 324 324 323 323 325 328 328 328 328 329 330 331 331 329 327 327 326 325 325 321 315 312 312 311 310 310 310 309 308 307 307 311 317 324 329 331 333 334 333 331 332 334 336 335 333 332 333 334 334 333 336 341 343 342 340 340 340 340 339 337 338 339 338 337 336 335 335 336
324 325 323 321 320 320 320 320 320 320 320 321 321 317 317 321 325 323 321 320 319 320 323 324 324 325 326 326 327 327 326 324 325 324 323 322 317 311 309 309 309 309 308 308 307 306 308 315 323 329 332 333 333 332 331 330 331 333 333 333 332 331 331 332 334 336 337 339 341 340 338 337 337 337 337 336 336 337 337 335 335 334 334 335 337
323 323 322 319 319 322 323 320 319 320 321 323 323 319 315 315 317 317 316 313 311 311 315 318 319 321 323 323 324 324 323 322 321 320 319 316 312 309 309 309 309 308 308 308 307 306 311 320 326 328 328 327 327 327 327 327 329 330 330 331 331 331 331 333 336 337 337 338 338 336 335 335 334 335 335 335 335 335 334 333 333 332 332 333 334
324 323 321 317 316 320 323 321 320 321 321 321 323 322 321 319 317 315 316 313 308 305 307 310 311 314 318 321 322 320 318 317 316 314 313 311 309 308 308 308 308 308 308 308 307 308 315 324 327 326 324 324 324 325 326 327 328 328 329 330 330 329 330 333 335 335 334 335 335 334 333 333 333 334 334 333 333 333 332 332 331 331 331 332 333
323 323 322 318 316 320 322 321 321 322 322 321 321 321 322 324 323 321 320 318 313 309 307 306 306 307 310 314 316 316 316 314 312 311 309 308 308 308 308 308 308 308 308 308 309 312 321 326 325 324 324 324 325 326 326 327 327 328 328 328 328 328 330 332 333 332 332 333 333 333 333 334 334 334 334 333 332 331 330 330 330 330 331 331 332
322 322 323 321 320 321 322 321 321 321 321 322 322 322 321 324 325 324 323 321 319 316 315 313 312 311 311 311 312 313 312 311 310 309 308 308 308 308 308 308 308 309 311 312 313 318 324 325 323 324 325 326 326 326 326 327 327 327 328 328 329 330 330 330 330 331 332 333 334 334 334 334 334 334 334 332 331 329 329 329 329 329 329 330 330
321 320 321 322 321 320 320 321 322 322 321 321 321 321 322 323 323 323 323 323 321 321 321 320 319 318 317 315 315 314 311 310 309 309 308 309 309 308 308 311 313 314 316 317 318 322 326 326 325 326 326 326 326 326 327 327 327 327 328 329 329 329 329 329 330 330 330 330 330 331 330 329 329 330 330 329 329 329 328 328 328 328 328 329 329
318 313 312 316 320 321 320 320 321 321 322 322 321 320 322 323 321 320 322 323 323 323 324 322 320 319 319 318 317 315 312 310 311 311 311 312 311 309 311 318 323 323 322 322 323 326 327 326 326 326 326 326 327 327 327 327 327 328 328 328 328 328 328 329 328 327 325 325 326 327 327 326 326 327 328 328 328 328 328 327 327 327 327 327 327
319 315 313 316 320 321 320 320 320 320 320 319 318 318 320 321 321 321 321 322 321 323 324 324 322 320 319 318 317 316 313 312 314 315 316 316 315 314 316 322 325 325 324 325 325 326 326 325 325 325 326 326 326 326 326 326 325 325 326 325 325 326 326 326 325 324 324 324 325 326 326 326 326 326 326 326 326 326 326 326 325 325 325 326 326
320 320 319 318 318 318 318 319 319 318 315 313 314 317 319 320 320 320 320 321 322 321 321 322 323 321 320 319 318 316 315 314 316 317 318 319 319 319 321 323 323 323 323 324 324 324 324 324 324 324 324 324 324 323 323 323 323 323 323 323 323 323 323 323 323 323 324 325 325 324 325 325 325 324 324 325 324 324 324 324 324 324 324 324 324
320 321 320 318 317 318 319 319 318 316 315 315 317 318 319 318 319 319 318 319 321 320 318 319 320 321 321 320 318 317 316 315 315 316 318 319 320 321 321 321 321 321 322 322 322 322 322 322 321 321 321 321 321 320 320 320 321 320 320 320 321 321 321 322 322 322 322 322 322 322 322 323 323 323 322 322 322 323 323 322 321 321 321 322 322
320 320 318 314 312 314 317 319 318 317 318 319 319 318 318 317 317 317 318 318 319 319 319 319 320 320 320 320 318 317 315 315 314 314 315 317 319 319 319 319 320 320 320 320 320 320 320 319 319 318 318 318 318 318 318 318 318 318 318 318 319 319 319 319 319 319 319 319 319 319 319 320 320 320 320 320 320 320 320 319 319 319 319 320 320
319 318 314 310 309 312 314 316 317 317 317 317 317 317 318 317 317 317 317 317 318 318 319 319 319 319 318 317 316 314 314 314 313 313 313 315 317 318 318 318 318 318 318 318 318 318 317 317 316 316 316 316 316 316 316 316 316 316 316 316 316 316 317 317 316 316 316 316 317 316 316 316 316 316 317 318 318 317 318 318 318 318 318 318 318
320 319 314 311 312 314 316 315 315 316 317 317 317 317 316 316 316 316 315 315 316 317 317 317 318 316 315 314 313 312 311 312 312 312 313 314 315 316 316 316 316 316 316 315 315 315 314 314 314 314 314 314 314 314 314 313 313 313 313 313 313 313 314 314 313 313 313 313 313 312 312 312 311 312 313 313 313 313 314 314 315 315 315 315 315
320 319 317 314 313 314 315 315 315 316 316 316 315 314 313 313 315 315 316 316 316 315 315 316 316 315 314 313 312 310 311 311 312 312 313 314 314 314 314 314 314 314 313 313 313 313 312 312 312 312 312 312 312 312 312 311 311 311 311 311 311 311 311 311 310 310 309 309 309 309 309 309 309 309 309 310 309 309 309 309 309 310 310 311 312
319 319 319 317 315 314 315 315 316 316 316 315 314 314 314 314 314 314 315 315 315 314 314 314 314 315 315 313 311 311 312 312 312 312 312 312 312 312 312 312 312 311 311 311 311 310 310 310 310 310 310 310 310 310 310 310 310 309 309 309 309 309 308 308 307 306 306 306 306 306 306 306 306 306 307 307 307 307 307 307 306 306 307 308 308
319 318 318 317 317 316 315 315 315 315 315 315 314 314 314 313 313 313 313 314 314 313 313 313 313 314 314 313 312 311 312 311 311 310 310 310 310 310 310 310 310 309 309 309 309 308 308 309 309 309 309 309 309 309 308 308 308 308 307 307 307 307 306 305 304 304 303 303 303 303 303 303 303 304 304 305 305 305 305 305 305 305 305 306 306
319 318 317 317 317 316 315 315 314 314 314 313 313 313 312 311 311 312 312 312 312 312 312 312 311 311 311 311 311 310 310 310 309 309 308 308 308 308 308 308 308 308 307 307 306 306 306 306 307 307 308 308 307 307 306 306 306 306 306 306 305 304 303 302 302 301 301 301 301 300 301 301 302 302 303 303 304 303 303 303 303 303 303 303 303
318 318 316 315 315 315 315 314 314 313 313 312 312 312 313 313 312 312 312 311 311 310 310 310 310 309 309 309 309 309 308 308 307 307 307 307 307 307 306 306 306 306 305 305 304 304 304 305 305 306 306 306 305 305 305 305 305 305 304 304 303 302 301 301 300 299 299 299 298 298 299 300 300 301 301 302 302 302 302 302 301 301 301 301 301
316 316 315 314 314 315 314 314 314 313 313 312 312 312 312 312 312 311 311 310 309 309 308 308 308 308 308 308 308 307 307 306 306 306 305 305 305 305 305 305 305 304 303 303 303 303 303 303 303 304 304 304 304 303 303 304 304 303 303 302 301 301 300 299 299 298 298 298 297 297 297 297 298 298 299 300 300 300 300 300 300 300 300 300 300
314 315 315 314 314 314 313 313 312 312 312 312 311 310 310 309 309 309 309 309 308 308 307 307 307 307 306 306 306 305 305 304 304 304 304 304 304 304 304 303 303 302 302 302 301 301 301 301 302 302 302 302 302 302 302 302 302 302 301 300 300 299 298 298 298 298 297 297 296 296 295 295 296 296 297 297 298 298 298 298 299 299 299 300 300
314 315 314 313 313 313 312 312 312 312 311 311 310 310 309 309 308 308 308 308 307 306 306 306 306 305 305 305 304 304 303 303 303 303 303 303 303 302 302 302 302 301 301 301 300 300 300 300 300 301 300 300 300 300 300 300 300 300 299 299 298 298 297 297 297 296 296 295 295 295 294 294 294 295 296 296 297 297 297 298 298 299 299 300 300
313 313 313 312 311 311 310 310 310 310 309 309 309 309 309 309 308 308 307 307 306 305 305 304 304 304 303 303 303 303 302 302 302 301 301 301 301 301 301 301 300 300 300 300 299 299 299 299 299 299 299 299 299 299 299 299 299 299 298 298 297 297 297 296 296 295 295 295 295 294 294 294 295 295 296 296 297 297 297 298 298 299 299 300 300
311 311 310 310 309 309 309 308 308 308 307 306 306 306 306 306 307 307 306 306 305 304 303 303 303 303 302 302 302 302 301 301 300 300 300 300 300 300 300 300 299 299 299 299 298 299 299 298 299 298 298 298 298 298 298 298 298 298 297 296 296 296 296 295 295 295 295 295 295 295 295 295 296 296 296 296 297 298 298 298 298 299 299 300 300
Wind_Speed
20 18 17 16 15 15 16 15 14 14 13 12 12 12 13 13 12 11 11 12 12 11 10 10 10 10 9 9 8 8 9 9 8 9 10 9 8 7 7 7 8 7 7 6 6 5 4 4 5 5 6 6 6 6 6 6 6 7 6 7 8 8 8 9 7 8 10 10 10 11 11 12 13 12 13 14 14 14 15 17 17 18 20 20 19
21 20 18 18 17 15 15 15 14 14 13 12 12 12 12 13 12 11 11 11 11 11 11 11 10 10 9 9 9 8 9 10 9 9 10 10 9 8 8 9 8 7 7 7 6 6 6 5 6 6 7 7 7 7 6 5 5 5 6 7 9 8 8 8 8 8 10 10 9 10 11 12 13 13 13 14 14 14 17 17 16 17 19 19 19
19 20 18 17 16 15 14 14 14 14 14 13 13 12 12 12 11 11 10 11 11 11 11 11 10 10 10 10 9 9 9 10 9 9 10 10 10 9 9 9 9 9 8 8 7 7 7 7 7 7 7 7 7 7 6 4 3 4 6 6 6 6 6 7 7 8 9 10 10 10 11 13 14 13 12 13 13 15 17 17 16 17 18 17 18
16 17 17 16 15 15 14 13 13 13 14 13 13 13 12 12 12 11 11 11 11 11 11 10 10 10 11 10 9 9 10 10 9 10 10 11 11 10 9 9 9 9 9 8 8 8 8 8 8 8 7 6 6 5 5 6 4 4 5 4 3 4 5 6 7 8 9 10 10 11 13 14 15 15 13 13 13 15 16 16 17 18 17 15 16
16 16 16 15 15 15 15 14 14 14 14 13 12 13 13 13 13 13 12 12 12 11 12 12 11 11 11 11 11 11 11 11 10 11 11 10 10 10 10 10 10 10 10 10 9 8 8 8 8 7 7 7 7 6 6 6 5 5 5 4 4 4 5 6 7 9 10 11 12 13 14 15 16 15 13 13 15 16 17 16 16 17 17 16 16
15 16 16 16 14 15 15 14 14 14 14 13 13 13 13 13 14 14 13 14 13 12 13 13 12 11 12 12 12 12 12 12 12 12 11 10 11 11 10 11 11 10 10 10 10 10 10 9 9 9 8 8 7 7 7 5 4 6 6 5 5 5 6 7 8 9 10 11 13 13 14 14 14 14 14 15 18 19 18 17 18 19 17 16 16
14 15 16 16 15 14 14 14 14 14 13 13 13 13 13 12 13 13 13 13 13 13 13 13 13 13 13 13 13 12 13 13 13 13 12 11 11 11 10 10 11 11 11 12 11 11 11 10 10 10 9 9 9 8 7 6 6 6 5 4 4 4 6 8 9 10 11 11 12 13 13 14 15 17 18 17 16 16 17 18 20 19 16 16 19
12 13 14 14 14 15 15 14 13 13 12 13 14 14 13 12 13 12 10 12 14 14 13 13 13 13 13 13 13 13 13 13 14 14 13 12 11 11 10 10 10 10 11 12 12 11 11 10 11 11 11 11 11 9 8 6 5 3 3 5 5 6 7 8 9 10 11 12 13 14 15 16 17 18 16 14 15 16 18 18 18 18 19 21 24
11 11 12 13 13 14 15 14 13 13 12 12 13 14 14 12 13 12 11 11 12 12 13 14 13 14 14 14 14 14 14 14 14 14 14 13 12 11 10 9 10 10 11 13 13 12 10 10 10 10 10 11 12 11 10 9 6 5 6 7 7 8 8 9 10 11 12 13 13 14 16 16 16 15 15 15 16 18 20 20 20 22 23 25 26
13 12 12 12 12 12 12 11 11 11 11 10 9 10 10 9 9 10 11 11 11 10 10 12 13 13 13 14 15 15 13 13 15 16 15 14 13 11 10 10 11 11 11 12 12 11 11 12 12 11 11 11 10 11 12 11 11 10 10 10 10 10 10 10 11 11 12 12 13 14 14 14 14 16 16 16 16 18 20 21 22 23 23 22 23
9 10 10 11 10 11 11 10 9 9 9 8 7 8 9 8 9 10 11 11 11 11 10 10 13 14 13 12 11 11 10 9 10 14 15 14 12 11 10 10 10 9 9 10 12 12 13 12 11 10 9 9 8 9 10 9 9 9 9 9 10 12 12 13 13 13 13 13 13 14 14 14 15 16 15 15 16 18 19 18 18 19 19 17 18
7 8 9 9 8 9 9 9 8 7 7 7 7 7 9 11 11 12 11 10 9 11 11 10 11 12 11 9 6 3 6 8 6 9 13 13 13 13 11 9 9 9 10 11 12 11 12 12 11 12 13 9 8 9 9 7 6 6 7 8 9 11 12 13 15 16 15 15 15 14 14 15 15 15 14 15 17 18 18 17 17 18 18 17 18
6 6 7 8 7 7 7 7 6 6 7 8 7 8 10 13 14 14 14 12 10 11 12 11 11 11 11 9 5 5 4 5 4 6 9 11 12 13 11 9 9 9 11 11 9 9 11 12 12 10 9 6 6 7 7 6 6 7 8 8 9 11 11 11 13 15 16 17 17 17 16 16 17 17 16 15 16 17 18 19 19 18 19 20 21
1 2 4 4 5 6 7 8 9 9 10 10 10 10 12 12 13 14 15 15 13 12 13 12 13 14 13 10 7 5 5 5 5 6 6 8 9 9 9 9 8 8 9 10 10 10 11 13 14 12 8 5 4 5 4 3 5 6 6 7 10 11 11 12 13 14 14 13 15 16 16 17 17 17 16 15 17 19 21 21 20 20 21 22 23
7 3 1 3 4 4 4 4 6 7 9 11 11 11 12 12 14 14 14 14 14 14 14 15 17 17 13 8 7 9 9 7 7 7 7 7 7 6 7 7 8 8 9 10 10 9 7 9 11 9 6 5 5 5 4 3 3 5 6 7 9 10 11 12 14 13 11 10 12 14 15 15 16 18 19 20 21 22 22 21 20 21 23 22 21
14 12 9 6 4 2 1 3 4 3 3 4 5 6 9 12 15 15 14 13 15 15 15 16 17 17 15 10 7 9 10 9 8 8 7 7 6 5 4 5 7 9 10 10 8 6 5 6 7 6 5 6 5 5 5 4 4 5 6 7 8 8 9 11 12 12 11 11 12 14 16 17 19 20 20 20 20 20 20 20 20 20 19 18 17
18 17 15 13 12 9 6 4 3 3 4 3 2 1 3 6 9 11 11 13 16 18 18 17 16 16 16 13 9 8 10 9 8 9 8 7 5 4 2 4 6 7 7 7 5 4 4 3 2 3 3 3 3 3 5 5 4 5 5 6 8 8 9 9 9 9 9 11 13 15 17 18 18 18 17 16 16 16 17 19 19 16 15 14 13
18 18 17 16 15 13 12 11 9 8 8 7 7 5 1 2 4 8 11 11 13 16 18 20 21 18 15 12 11 10 9 6 6 7 7 6 4 3 3 3 5 5 5 5 5 3 3 3 2 4 4 3 3 4 5 6 6 6 5 6 8 7 6 6 7 8 10 13 15 16 16 16 16 16 16 16 16 16 16 17 16 14 13 12 13
19 19 17 16 15 14 13 13 12 12 12 11 11 9 6 3 3 6 8 8 8 11 17 21 22 17 11 9 10 9 6 3 2 2 3 4 3 3 3 4 4 4 4 4 4 4 5 6 5 4 4 4 4 5 6 5 5 5 4 5 6 6 6 7 9 11 14 16 16 17 17 16 16 18 18 19 20 18 16 14 12 11 12 13 13
17 16 15 14 14 14 14 13 12 12 12 12 11 9 9 8 4 1 1 0 2 2 7 14 18 16 12 12 10 6 5 4 2 2 2 2 0 1 2 2 4 6 5 3 2 4 5 6 6 5 4 4 5 5 5 5 4 4 4 4 6 7 9 10 11 13 15 17 17 17 16 16 17 17 17 18 17 12 7 7 9 10 12 14 15
13 12 12 12 12 13 14 13 13 12 11 11 10 9 9 9 8 7 5 4 6 7 5 8 18 20 15 12 9 5 5 5 4 5 4 3 4 4 3 2 2 7 7 3 3 4 5 6 7 6 5 5 6 6 5 5 5 6 6 6 7 9 11 12 13 14 16 16 15 15 14 15 16 16 15 15 13 10 9 10 13 15 15 16 16
10 10 10 11 10 11 12 12 13 14 13 10 9 9 8 9 9 8 7 6 8 9 9 9 12 15 12 10 9 8 7 7 7 6 6 5 4 4 4 4 2 2 4 4 4 3 2 5 6 6 6 7 7 6 6 7 8 8 9 10 10 11 12 13 14 15 15 14 12 12 13 15 16 16 14 13 11 10 11 15 18 17 15 14 15
9 9 8 9 10 9 9 9 11 13 13 11 10 9 8 8 9 8 8 9 9 9 11 10 8 10 9 10 12 12 11 10 9 7 6 6 6 5 5 4 3 2 5 5 2 2 2 1 4 6 7 8 8 9 10 11 12 12 12 12 12 12 12 14 15 14 13 11 10 11 14 15 16 15 13 12 11 13 17 19 17 15 13 14 15
8 8 7 6 7 7 7 7 8 8 8 7 8 8 7 7 8 7 7 7 7 8 9 7 5 8 9 8 10 12 11 10 10 8 7 8 8 6 5 4 1 2 7 8 4 2 1 4 7 8 9 10 11 12 13 13 13 13 12 12 12 11 12 13 13 11 10 10 10 11 13 14 14 12 13 14 15 17 18 17 14 13 14 15 16
8 8 7 6 5 5 5 6 6 6 5 5 5 6 5 5 6 7 8 8 8 7 6 4 2 3 8 10 10 9 8 8 10 10 9 8 9 7 6 4 2 4 7 7 5 6 8 10 11 11 12 12 13 13 13 12 11 10 9 9 8 8 9 10 9 8 9 10 10 12 12 11 11 12 14 16 17 17 16 14 14 15 16 17 18
8 6 6 5 5 4 5 5 4 4 3 3 4 4 3 3 3 6 8 8 8 9 8 6 5 5 4 9 10 8 8 8 9 10 8 6 6 6 6 5 3 4 5 6 8 9 11 12 12 12 12 12 11 10 8 6 6 6 6 6 6 6 7 7 7 9 9 9 10 12 11 10 12 14 15 15 15 15 15 15 16 17 17 18 21
6 6 5 5 6 7 6 4 3 2 2 2 4 5 4 3 3 5 6 5 6 8 9 8 8 8 9 7 5 5 6 6 6 5 3 3 4 5 6 7 5 3 4 7 9 10 12 12 12 11 10 8 7 6 5 4 5 5 5 5 6 6 6 6 8 10 10 8 8 9 8 9 13 14 12 12 14 15 15 15 15 16 18 20 23
3 4 5 5 5 5 5 4 4 4 4 4 5 6 6 6 7 7 5 4 5 8 9 8 9 11 11 10 7 6 5 3 2 2 2 4 6 7 7 7 7 6 7 9 9 9 10 11 9 8 8 8 7 7 8 8 7 5 5 6 7 7 6 8 10 11 11 9 8 7 7 10 12 12 12 13 15 14 13 14 16 18 20 21 20
2 3 4 5 5 3 4 5 5 5 6 5 5 7 7 7 7 7 5 4 4 5 5 5 7 9 7 6 7 7 4 1 1 2 5 6 7 8 7 7 6 6 7 9 9 9 9 9 8 8 11 11 9 8 8 7 5 5 5 5 5 6 7 7 7 7 7 5 5 7 9 11 12 12 12 13 14 13 13 15 17 19 20 19 18
3 4 5 6 6 5 6 6 5 5 6 6 5 6 6 5 4 4 5 6 6 6 5 3 4 4 2 2 2 1 2 4 5 6 7 8 9 9 8 7 8 8 7 7 8 9 9 8 9 11 12 10 9 8 9 8 7 7 6 7 7 8 9 10 10 11 11 11 11 12 12 13 14 13 13 13 14 13 13 14 16 18 20 20 19
2 4 5 5 5 5 6 6 4 4 5 5 4 3 3 3 3 3 4 5 5 5 6 4 3 2 1 2 3 4 5 6 8 9 10 10 10 10 9 7 7 7 7 6 7 8 7 8 11 11 9 8 8 9 9 10 11 11 10 10 11 11 12 13 13 13 13 12 12 13 13 13 14 14 15 16 15 13 11 12 15 18 19 19 19
1 4 4 5 4 3 4 4 3 2 3 3 3 1 1 3 3 1 3 5 3 2 3 3 3 3 2 2 4 7 8 9 10 11 12 12 11 9 8 6 5 5 5 6 7 6 6 8 10 9 7 6 7 9 10 10 11 11 11 11 11 11 12 13 13 13 13 13 12 12 12 13 14 15 16 16 15 14 15 16 17 18 18 17 17
3 5 5 4 3 3 3 3 2 2 2 2 2 2 3 3 3 3 1 1 2 2 2 2 2 3 3 3 3 6 9 10 10 10 10 9 8 7 5 3 3 3 3 5 6 6 6 7 8 6 6 7 8 9 9 10 9 10 10 9 9 11 13 13 12 12 13 13 12 13 13 14 15 17 17 18 17 17 18 18 18 17 17 18 17
4 5 5 5 4 3 3 3 2 2 2 3 2 3 4 4 2 1 3 3 2 1 1 1 4 5 6 6 6 5 6 7 6 6 6 6 7 6 4 2 3 4 3 3 3 5 6 6 6 7 7 8 8 8 8 8 8 8 9 8 9 12 13 12 11 13 14 14 14 15 16 17 18 18 18 19 18 18 18 18 17 18 17 17 17
3 3 4 4 4 2 2 2 3 3 3 2 3 3 4 4 3 3 3 2 3 4 4 3 2 4 5 5 7 10 10 8 6 6 6 6 7 5 4 5 4 3 3 2 3 4 5 6 7 8 7 7 7 8 8 8 9 9 10 11 11 11 11 11 12 14 16 16 15 15 15 16 15 15 15 16 17 17 18 18 17 17 17 17 18
4 4 5 4 4 2 2 3 3 1 0 0 2 3 3 3 4 4 4 3 3 3 2 4 3 2 3 3 6 9 10 8 6 6 6 7 8 7 6 8 8 4 1 2 3 4 6 7 7 8 8 8 8 9 9 10 11 11 11 12 13 12 12 13 14 15 16 15 14 14 15 14 14 14 14 15 16 16 17 18 18 19 19 19 20
5 5 5 4 3 3 2 2 2 0 1 1 2 2 2 2 2 3 4 4 3 3 2 1 2 2 2 1 4 8 10 11 10 9 7 5 7 8 7 7 7 7 6 7 8 8 8 8 8 9 10 10 10 11 11 11 11 11 12 13 14 13 13 14 14 15 16 15 14 15 16 15 15 16 16 17 17 17 17 18 19 20 20 21 21
4 7 8 6 4 3 2 2 2 1 1 2 3 3 2 2 2 2 3 3 3 3 3 2 2 3 3 4 5 6 8 11 12 12 11 8 7 7 7 7 6 7 7 8 9 8 8 8 9 10 10 11 12 11 11 11 11 12 13 13 13 13 13 14 15 17 18 17 17 18 18 18 18 19 19 19 19 18 18 19 20 20 21 21 21
7 8 9 7 6 5 3 3 3 2 2 2 3 2 2 2 2 2 2 3 3 2 2 3 2 3 5 6 5 4 7 9 11 11 11 10 8 7 6 6 6 6 6 7 7 7 7 8 9 10 11 11 12 12 13 13 13 13 13 13 12 13 13 14 15 16 17 17 18 18 18 18 19 19 18 17 18 18 19 20 21 21 21 21 20
10 10 10 8 7 6 5 3 4 3 3 3 2 2 2 2 2 2 2 3 3 2 3 3 2 5 4 2 3 6 8 8 8 8 7 8 8 7 6 7 7 7 7 7 7 8 9 9 10 11 11 11 12 12 13 14 14 14 15 15 15 15 14 14 15 16 16 16 17 18 18 19 20 19 18 18 19 20 20 20 20 20 20 21 22
11 12 12 10 8 7 6 5 5 5 4 3 2 2 2 2 2 2 3 3 2 2 3 2 3 5 3 4 6 9 9 7 6 6 5 5 5 5 5 6 7 7 7 8 9 9 9 10 10 10 10 10 11 12 12 13 13 14 14 14 15 15 15 15 15 16 16 16 18 20 20 22 23 22 21 21 21 21 20 20 21 21 21 22 22
13 13 13 11 9 8 8 7 7 6 4 3 3 3 2 2 2 3 3 3 2 3 3 2 2 2 2 5 8 10 8 4 2 2 3 3 4 5 5 5 6 6 8 10 10 10 10 9 9 9 9 10 11 11 11 11 12 12 12 13 14 14 13 13 14 16 17 18 19 20 20 21 21 21 20 20 21 21 21 22 23 23 23 23 24
14 13 12 12 10 9 8 7 7 7 6 4 4 4 3 3 3 3 3 3 3 3 3 3 2 0 1 4 7 7 5 3 3 3 4 4 5 6 6 6 6 8 9 9 10 10 10 9 9 9 9 10 10 10 10 11 11 11 12 12 13 11 11 12 14 17 19 19 18 18 18 19 20 20 19 20 21 22 22 23 22 22 23 23 24
14 13 11 11 11 9 7 7 6 6 6 5 4 3 3 2 3 3 3 3 2 3 3 4 3 2 1 2 4 4 3 3 4 4 4 5 5 5 6 7 8 9 8 8 9 9 9 9 9 9 9 9 9 10 10 10 10 11 12 12 10 9 10 13 16 18 18 17 16 18 20 21 21 19 19 20 21 22 23 22 21 22 22 22 23
15 14 12 11 11 9 8 7 6 5 5 5 5 5 5 4 4 3 3 3 2 2 2 3 3 3 3 3 4 4 4 4 4 4 4 5 5 5 6 7 8 9 8 9 9 10 9 9 9 9 9 9 9 9 9 10 10 11 10 8 7 9 11 14 16 16 15 15 17 20 20 19 18 17 18 20 21 21 21 20 20 21 22 23 24
14 13 11 10 11 10 9 8 7 6 6 6 6 6 7 6 5 4 4 3 2 1 2 3 3 3 4 4 4 4 4 4 4 4 5 5 6 6 7 7 8 8 8 8 9 9 9 8 8 8 8 8 8 9 9 9 10 10 8 6 7 10 12 14 16 16 16 19 22 21 18 17 17 18 19 21 21 21 21 22 22 23 24 25 27
12 11 10 12 14 12 10 9 7 7 7 7 6 4 2 2 2 1 2 2 2 2 3 3 3 3 3 3 4 4 4 4 5 5 6 6 6 7 7 7 7 7 8 8 8 8 8 8 8 8 8 8 8 9 9 9 9 9 9 8 9 12 14 17 19 21 22 24 25 23 22 22 22 20 19 20 20 20 22 23 23 24 25 26 26
11 12 11 12 13 11 9 9 8 8 9 8 5 3 1 1 1 1 2 2 2 3 3 3 3 3 3 3 3 4 4 5 5 6 6 6 6 6 7 7 7 7 7 7 7 8 8 8 8 8 8 8 8 8 8 8 8 8 9 11 13 16 19 21 23 24 25 25 25 25 26 26 24 21 20 20 20 20 22 22 22 22 23 22 23
11 10 10 10 9 7 6 7 8 10 11 10 8 7 7 6 4 3 4 4 4 4 5 4 3 3 3 4 4 4 5 5 5 5 6 6 6 6 6 6 6 7 7 7 7 7 7 7 7 7 7 8 8 8 8 8 7 8 11 14 16 19 22 23 24 25 25 25 26 27 27 27 25 23 21 21 21 21 21 21 21 21 21 21 22
9 7 6 7 6 5 5 5 5 5 5 5 5 5 5 4 3 5 6 7 7 7 7 5 4 4 4 4 4 5 5 5 5 5 6 6 6 6 6 6 6 7 7 7 7 7 7 7 7 7 7 7 7 7 8 7 7 8 12 16 18 20 22 23 23 24 24 26 27 28 28 29 29 26 23 21 20 20 21 21 21 22 22 22 22
8 6 5 5 5 5 5 6 5 2 2 3 4 4 4 3 2 3 5 7 8 8 7 6 5 5 5 5 5 5 5 5 5 5 5 6 6 6 6 6 6 7 7 7 7 7 7 7 7 8 8 8 8 8 8 7 7 10 15 18 19 20 21 21 23 24 25 26 27 28 28 28 27 25 22 20 20 20 21 22 22 22 22 22 22
Wind_Direction
179 183 187 189 191 189 193 199 199 203 203 198 203 212 216 218 216 210 203 200 202 200 202 211 211 206 206 207 209 217 220 218 219 221 224 232 238 241 240 233 232 235 240 250 254 250 241 232 239 247 243 242 249 248 242 241 231 222 222 213 208 210 214 219 230 265 291 297 297 304 315 318 316 318 322 319 315 315 317 319 318 318 318 323 328
179 184 187 188 193 192 193 199 200 203 206 204 209 215 216 217 219 218 210 208 210 205 206 214 215 215 215 211 211 222 220 215 223 229 224 229 235 237 243 244 237 237 242 246 247 251 252 247 247 249 247 243 244 250 255 255 244 237 236 227 218 214 217 222 228 252 284 300 306 310 317 319 318 319 318 314 313 315 315 315 318 321 323 326 327
178 182 186 186 189 192 194 199 202 207 209 209 214 217 217 217 219 223 221 219 217 212 213 217 216 217 219 217 215 222 220 214 224 235 232 235 238 237 244 243 235 235 241 243 243 246 249 250 252 252 250 247 241 244 260 267 247 237 239 235 231 236 242 244 245 256 280 300 312 315 316 314 313 311 307 307 312 313 311 311 314 319 321 323 326
181 182 186 186 188 193 197 200 204 212 214 215 217 217 219 220 219 222 228 228 223 217 220 227 227 219 219 225 224 221 225 223 226 235 239 241 242 242 245 246 242 239 239 244 244 241 241 246 251 254 259 267 261 254 265 271 269 258 251 247 245 257 264 264 269 280 290 300 307 308 307 304 305 303 300 304 310 310 310 309 309 311 315 318 323
187 185 185 186 190 195 199 202 206 214 218 220 222 223 223 224 223 222 227 232 229 224 223 226 231 225 217 224 229 225 229 233 232 235 240 242 243 243 245 248 247 244 245 249 248 246 249 250 253 256 258 264 264 257 255 260 273 276 266 262 260 265 277 283 284 287 289 291 293 296 300 300 301 304 308 310 308 304 303 305 307 311 311 312 317
186 189 189 191 194 197 200 203 206 213 218 219 225 232 233 232 229 223 225 233 233 229 225 219 221 226 220 222 232 233 233 235 238 238 238 242 243 242 244 248 250 250 249 250 248 247 248 249 255 257 253 254 257 256 257 263 273 268 268 284 290 284 288 292 292 292 292 293 293 295 300 303 306 312 311 303 297 295 298 306 314 316 312 311 320
182 184 187 192 197 199 201 206 209 212 215 216 222 235 245 249 246 235 227 232 237 238 234 221 215 223 227 228 233 238 236 236 239 240 240 242 244 244 247 252 255 257 255 254 252 249 248 248 249 249 248 251 254 255 256 257 258 262 278 300 298 294 300 301 303 305 306 307 305 304 305 307 307 304 301 301 303 306 311 312 312 317 325 327 327
180 180 185 191 195 199 202 207 212 213 216 216 218 230 245 255 262 262 250 238 238 241 243 237 224 221 228 233 235 238 240 238 238 240 242 244 247 249 251 252 257 263 265 266 261 255 255 254 250 250 249 244 244 249 254 252 243 250 293 311 310 306 303 301 304 308 308 304 302 303 305 303 299 297 304 320 328 329 330 324 319 329 338 331 323
181 184 191 193 194 198 200 207 214 215 216 217 216 224 237 248 260 274 276 262 250 245 247 251 245 230 226 232 236 237 240 239 238 240 241 240 245 250 249 248 256 261 266 272 271 266 266 266 261 258 251 246 246 243 237 234 230 246 278 290 294 294 291 294 297 299 299 297 296 300 301 300 305 316 329 337 336 334 339 340 336 334 332 324 320
188 189 194 197 197 197 197 202 206 203 199 198 199 207 219 233 248 261 268 266 266 265 262 266 269 256 237 231 233 237 242 240 237 238 238 235 239 247 250 254 262 266 267 274 279 279 276 274 270 264 255 252 252 240 233 239 248 261 276 279 275 279 285 291 295 297 301 302 302 305 305 310 323 333 335 334 336 336 338 338 333 327 326 323 320
201 202 201 200 198 197 198 200 197 190 188 190 194 201 208 217 232 247 255 258 264 272 276 280 282 279 272 262 252 250 259 258 239 229 226 225 232 241 251 261 272 277 278 280 278 279 287 290 291 298 293 273 262 253 249 257 266 273 285 288 281 280 283 286 288 293 299 302 305 308 310 315 322 328 331 331 332 332 330 328 325 323 323 320 316
242 240 234 229 223 214 209 209 207 199 198 205 208 212 221 230 237 243 247 253 261 263 266 280 288 287 292 310 345 345 274 270 250 221 218 223 230 233 243 262 277 285 288 290 287 293 317 325 324 340 349 330 301 292 276 262 271 288 296 299 294 291 289 286 283 284 285 288 294 298 301 306 312 318 323 323 323 326 325 322 320 316 312 310 305
248 250 252 255 256 245 235 234 232 223 219 223 226 231 240 247 250 249 248 251 259 255 253 267 280 277 277 290 332 9 311 276 256 225 219 223 227 226 232 247 266 282 293 304 308 304 314 312 294 302 330 325 303 307 296 263 260 278 286 291 300 304 298 291 286 284 282 283 284 285 289 295 300 306 312 316 320 324 323 320 319 314 308 305 300
177 213 224 238 250 253 254 257 257 254 247 242 240 241 244 244 245 249 248 246 246 244 244 253 261 263 267 264 255 266 286 279 263 247 232 225 226 231 241 252 264 279 291 310 323 317 312 306 292 287 295 289 272 282 286 257 255 276 295 305 308 306 298 299 304 297 290 290 291 293 296 295 295 300 307 308 309 313 314 314 313 310 305 303 303
67 63 146 220 237 247 250 244 247 257 256 250 246 242 239 237 235 237 240 240 235 231 232 237 244 250 254 242 222 237 256 261 257 257 252 248 250 259 271 277 274 269 275 296 321 334 322 295 286 285 276 261 262 267 262 251 270 300 323 320 311 302 296 307 316 309 297 298 302 304 304 301 299 301 304 302 301 304 307 307 305 302 300 304 309
68 63 64 70 77 70 97 167 186 209 221 228 238 236 233 237 239 239 243 245 240 232 227 227 231 238 242 233 218 229 239 241 247 256 260 262 267 275 292 293 281 275 280 292 311 335 327 287 279 278 260 249 257 269 269 268 284 307 317 313 308 304 302 309 316 313 309 309 309 307 305 303 304 305 306 306 306 307 306 302 300 300 302 308 316
76 73 71 72 74 70 74 105 127 109 103 107 104 152 221 236 243 245 245 245 242 236 232 229 228 231 233 229 223 230 237 239 248 259 266 270 273 274 275 285 289 293 300 306 310 318 327 329 296 253 245 257 274 285 284 286 296 308 315 314 308 305 308 312 315 320 322 319 315 312 310 308 308 309 310 311 311 309 302 296 297 303 309 312 314
79 77 75 74 73 70 73 79 80 77 71 66 71 77 62 278 270 260 254 255 255 247 240 234 230 228 226 221 223 232 236 238 245 258 269 273 269 266 261 273 289 299 305 312 319 308 293 299 264 233 235 259 283 290 295 302 309 309 308 312 310 308 316 326 326 322 317 315 315 317 319 320 320 320 320 319 317 307 292 290 296 300 303 308 310
80 78 75 74 71 70 72 73 73 75 70 67 76 85 79 48 313 275 264 272 280 264 243 226 215 212 205 191 202 214 207 194 216 264 297 290 275 262 255 255 268 284 297 308 313 300 285 277 261 252 265 278 287 296 303 311 318 312 306 314 316 316 323 332 332 326 321 323 326 327 329 332 331 328 324 321 318 306 290 292 302 296 294 304 309
77 75 73 74 75 76 74 71 70 72 68 66 73 83 88 87 88 140 191 318 11 313 236 194 166 154 152 152 160 175 156 123 100 63 9 333 2 158 212 228 245 253 254 259 276 281 284 284 283 286 295 304 315 319 322 332 333 329 337 335 321 319 322 325 328 329 328 328 327 326 328 329 327 325 323 324 329 332 325 329 332 319 312 313 314
74 72 71 75 81 84 80 76 74 71 67 65 63 66 80 89 94 102 102 104 103 82 67 121 126 124 130 135 130 129 128 116 94 72 56 56 99 121 127 111 249 258 258 266 295 282 267 270 280 285 291 313 334 343 342 340 331 327 337 334 322 320 321 320 322 325 325 324 320 318 321 321 321 323 325 327 343 15 26 359 343 336 329 323 319
79 78 76 75 79 87 87 79 71 64 62 64 59 55 63 74 77 76 68 78 108 95 61 71 110 120 117 107 95 87 89 92 85 73 69 72 82 92 93 96 111 279 295 300 306 307 269 254 267 278 292 312 327 332 323 315 311 312 315 314 311 310 308 308 312 315 317 318 315 312 316 318 318 321 326 328 337 349 343 333 333 334 331 324 322
87 85 84 81 80 85 87 82 76 69 63 59 58 56 56 63 67 64 59 68 87 90 73 70 101 120 110 93 86 78 71 72 71 62 64 68 65 67 76 96 134 75 15 352 338 54 90 209 267 287 298 302 304 304 302 300 300 301 301 301 302 302 300 302 306 311 315 318 313 310 314 317 315 319 330 339 335 329 329 331 333 333 330 328 327
100 91 89 92 92 92 88 81 80 78 66 58 64 65 63 66 66 59 60 68 74 80 84 88 122 148 146 129 101 83 72 70 70 66 63 61 53 48 50 57 120 60 32 26 33 46 346 297 298 300 296 294 294 294 294 293 293 294 293 294 296 296 296 299 304 309 309 306 304 306 309 311 314 322 337 342 336 332 334 334 331 328 328 327 325
102 96 89 88 93 106 104 84 70 67 69 78 85 78 75 84 75 57 57 61 54 49 56 57 47 144 143 131 116 97 83 76 74 69 61 54 51 46 35 24 18 27 18 2 338 319 304 299 303 302 296 294 293 292 292 292 292 292 292 292 293 292 295 299 301 297 291 292 302 307 306 309 318 326 333 335 335 335 335 333 330 330 330 327 324
95 95 90 84 78 81 89 91 82 62 47 71 86 78 80 97 85 60 57 58 48 33 28 33 19 2 64 96 98 94 96 102 98 88 78 66 57 42 18 3 21 42 15 329 308 304 302 302 306 305 301 297 291 289 290 290 290 297 300 293 283 283 289 291 284 275 276 287 301 302 302 313 323 327 330 333 333 333 332 331 331 331 332 330 328
106 106 105 96 81 70 67 76 95 72 25 43 72 72 73 87 90 77 59 43 41 39 34 40 39 19 17 41 68 91 108 121 128 124 102 43 7 347 336 335 338 342 320 308 307 308 308 308 306 305 306 305 294 287 287 283 287 302 305 288 278 282 289 285 275 271 276 286 293 294 304 320 324 326 330 332 330 329 329 331 333 336 337 333 326
121 130 137 122 97 84 75 62 49 45 50 55 53 53 61 68 69 73 69 40 41 50 47 49 56 46 29 23 42 81 117 154 186 216 299 338 341 332 326 327 329 327 319 317 320 320 315 310 305 308 314 311 298 291 292 289 286 293 299 292 286 289 288 279 273 273 275 274 276 293 322 331 327 327 330 328 326 326 331 336 338 337 334 326 319
82 99 110 101 87 75 76 68 47 36 50 59 42 36 51 65 58 52 47 21 6 19 33 45 56 57 44 25 37 60 84 141 247 292 309 321 329 332 331 328 331 336 333 328 328 326 324 326 329 327 320 312 306 308 312 312 303 294 301 312 314 316 315 310 310 320 329 328 328 342 349 340 329 324 322 321 321 325 331 336 335 334 331 325 319
94 78 66 66 67 58 57 61 47 28 36 49 49 40 40 43 33 15 2 344 327 325 337 357 22 39 79 183 202 293 295 294 301 306 312 319 324 326 327 328 330 330 329 330 328 325 328 336 335 329 328 333 340 340 338 346 354 349 345 350 351 349 354 0 3 4 7 6 358 352 345 333 323 319 317 315 315 316 323 330 332 333 331 327 322
134 105 74 64 71 67 61 64 57 35 33 37 44 51 36 13 0 0 359 350 327 313 312 310 315 338 346 215 247 275 288 298 306 311 315 319 319 318 322 325 321 316 316 318 318 318 323 327 325 328 335 341 343 343 349 1 9 10 8 4 1 360 1 3 2 357 355 353 345 338 331 321 316 315 314 312 313 317 328 335 333 328 323 319 319
152 122 102 87 84 82 81 80 69 61 59 39 20 5 252 249 235 202 30 22 18 351 313 307 307 311 314 296 288 290 294 298 302 306 310 314 316 320 327 324 302 296 302 302 305 318 323 311 308 314 323 334 348 2 8 7 7 8 5 357 353 353 354 358 0 355 348 341 332 324 319 315 314 318 320 321 326 337 342 338 329 322 318 316 317
95 104 101 94 89 81 78 78 67 68 67 39 5 329 295 265 206 176 175 341 7 44 62 48 28 21 17 5 319 296 296 299 302 306 311 321 331 337 341 327 282 272 280 281 289 304 307 299 304 322 342 353 2 6 4 2 0 357 351 345 345 349 353 356 356 351 347 344 339 337 336 335 335 337 335 334 336 338 334 327 322 320 319 319 319
100 108 107 99 91 78 64 61 66 73 59 31 357 326 323 333 345 208 220 227 229 229 203 84 73 62 39 24 23 12 349 338 338 340 343 354 356 351 349 328 269 249 253 277 282 284 294 312 342 4 6 2 0 359 357 356 351 346 345 347 348 349 351 351 349 350 352 351 345 342 341 338 335 333 330 329 331 328 322 318 317 317 318 320 322
119 124 127 121 114 108 96 81 63 55 55 37 355 333 334 339 327 302 277 253 244 239 223 197 117 67 41 26 30 29 22 19 26 29 29 22 12 6 1 348 322 260 234 270 293 296 321 354 12 11 5 0 359 358 355 355 357 360 0 358 353 350 349 348 347 348 349 346 339 332 328 324 322 322 321 322 322 320 318 318 318 319 322 324 323
149 135 135 140 140 124 103 101 94 70 88 311 319 322 322 321 318 317 318 311 303 290 220 182 157 80 32 33 41 36 29 27 26 25 30 28 24 24 15 1 2 9 1 344 351 1 12 19 16 9 8 8 6 6 5 4 5 4 1 360 360 356 351 345 342 339 336 332 328 323 321 321 323 326 326 323 320 320 321 325 327 328 330 330 329
178 164 154 149 144 134 118 128 141 188 267 236 261 289 290 291 304 315 318 317 322 337 349 134 158 204 242 206 64 47 36 27 13 4 8 18 18 16 7 360 7 17 18 21 30 30 25 20 17 16 16 13 10 9 6 3 3 1 0 2 1 354 345 341 341 341 340 338 337 337 339 339 339 342 343 339 335 333 334 337 339 339 337 338 337
178 162 158 156 155 155 159 172 185 222 272 203 208 232 269 295 299 298 304 309 312 315 309 285 266 262 222 150 111 63 32 22 14 8 5 4 6 10 6 2 11 17 18 24 29 25 19 19 20 20 17 12 10 8 2 359 359 357 356 356 352 346 344 343 345 350 353 354 353 354 354 350 346 347 348 345 341 339 340 342 343 339 335 333 330
188 179 178 184 189 189 191 200 208 222 238 220 219 231 244 261 280 287 292 299 303 299 287 285 314 34 84 107 103 47 16 12 8 2 357 354 359 10 8 4 12 20 18 19 19 16 16 18 19 18 16 10 8 6 1 358 356 354 353 352 348 346 348 349 350 353 353 351 350 350 348 345 342 341 340 337 337 337 336 335 333 330 325 322 320
193 198 202 202 194 189 194 204 210 218 226 223 226 239 240 245 277 304 307 306 308 311 311 317 46 80 78 51 4 3 3 358 349 341 337 341 351 2 4 5 13 18 14 15 19 19 17 16 15 14 10 6 5 4 1 0 0 359 359 357 354 353 355 356 355 355 352 351 353 356 356 354 352 351 348 345 342 339 334 329 327 325 323 321 320
191 193 195 189 180 184 196 204 206 210 214 212 216 229 240 256 275 278 286 297 303 305 314 341 86 90 58 5 358 358 353 340 324 316 313 318 332 346 358 5 12 10 5 10 18 19 15 11 8 5 2 2 3 2 360 360 359 356 354 353 352 351 350 349 352 356 357 357 359 0 357 354 353 354 354 351 348 345 340 336 333 331 328 326 324
189 185 185 183 184 193 205 208 202 196 196 209 228 235 247 267 273 268 272 281 287 298 312 330 73 79 24 359 358 357 356 352 332 320 323 331 342 354 2 4 7 12 15 17 19 17 12 7 4 0 359 359 359 358 357 356 353 351 349 346 344 343 345 350 357 0 359 357 358 357 355 352 351 351 349 347 345 344 342 339 336 333 330 326 325
196 188 182 179 182 191 202 205 197 191 195 205 211 213 220 239 254 258 264 270 276 287 297 299 296 45 17 8 12 18 26 37 27 13 8 3 0 1 1 0 4 13 17 17 15 11 6 2 358 354 353 353 352 351 351 350 348 347 343 339 340 346 356 1 358 353 351 351 353 353 351 349 347 345 342 338 335 333 331 329 328 326 323 319 317
203 198 191 187 187 190 196 201 201 201 201 196 191 202 218 236 252 257 257 258 269 281 288 296 302 300 311 9 25 32 28 18 15 14 10 5 0 357 356 359 4 8 11 11 11 8 4 357 350 346 345 344 344 346 347 345 344 344 340 338 345 358 2 356 351 350 353 355 353 348 344 341 339 338 335 330 327 324 320 318 318 317 316 315 314
209 205 205 203 200 194 189 194 204 212 210 205 205 214 220 223 231 249 263 266 266 275 288 303 314 318 321 337 353 356 357 1 5 5 3 359 356 355 358 1 3 5 6 4 5 5 1 352 344 338 337 336 337 342 343 340 341 342 339 339 353 2 358 353 353 354 356 353 347 343 340 337 335 333 328 323 319 317 315 314 314 313 312 312 310
212 206 208 214 217 215 207 203 206 210 218 226 225 215 212 217 222 231 249 265 274 302 320 316 320 325 326 327 330 335 346 354 354 354 356 351 347 350 352 351 352 355 355 354 354 355 350 341 334 332 332 333 335 338 337 338 343 344 338 341 356 357 352 351 351 349 345 341 339 339 337 332 328 325 320 316 311 308 307 307 306 305 306 305 304
207 205 212 223 229 229 218 206 210 219 225 231 230 218 226 314 324 280 249 260 278 296 296 296 307 316 314 313 321 331 343 348 346 344 344 342 341 341 340 337 340 344 346 347 347 345 341 336 334 335 334 333 334 335 334 337 343 338 328 332 345 344 340 341 341 338 334 333 334 333 331 327 323 319 316 314 309 304 301 299 297 296 297 297 299
201 209 220 232 240 235 210 195 207 226 230 225 213 189 158 63 29 317 273 277 286 288 284 281 288 294 295 302 318 332 337 338 336 335 335 333 328 326 326 331 334 336 337 338 336 336 336 335 334 334 335 335 336 336 333 334 336 330 324 332 339 338 336 336 334 331 330 330 329 328 327 324 320 316 313 310 306 302 300 299 298 298 298 297 298
205 213 220 228 241 250 235 212 212 222 227 226 222 216 209 203 207 242 265 273 282 293 296 297 299 304 310 318 325 330 328 322 319 323 326 324 319 319 321 324 327 329 329 330 329 330 333 333 332 333 336 336 335 335 333 333 330 321 320 329 333 332 331 330 328 326 326 326 325 323 322 320 316 312 308 305 304 302 301 301 301 302 301 300 299
217 219 215 213 218 237 257 248 236 234 246 255 254 244 229 221 234 252 255 259 269 279 284 286 290 299 310 313 311 308 305 304 306 314 318 315 313 313 312 315 320 323 322 324 326 327 327 328 330 332 333 332 332 332 331 331 324 315 318 325 327 326 324 323 322 322 322 321 319 317 315 313 312 309 304 301 300 299 297 297 297 298 298 298 297
214 217 218 218 216 218 225 231 234 253 339 345 349 1 14 14 345 287 265 262 267 270 272 275 279 283 289 297 302 300 296 296 301 305 304 301 303 305 308 312 315 317 319 323 326 326 326 327 330 330 330 330 329 327 327 326 321 319 322 325 325 322 320 319 318 317 316 314 312 310 309 309 308 305 299 295 294 293 293 293 294 294 295 296 296